owner,sensor,date,latitude,longitude,sea_surface_height_above_sea_level,qcFlag 
TCOON,ioos:station:TCOON:031:1,2016-05-01T00:18:00Z,28.4073,-96.7122,0.936,1111122 
TCOON,ioos:station:TCOON:031:1,2016-05-01T01:18:00Z,28.4073,-96.7122,0.933,1111122 
TCOON,ioos:station:TCOON:031:1,2016-05-01T02:18:00Z,28.4073,-96.7122,0.936,1111122 
TCOON,ioos:station:TCOON:031:1,2016-05-01T03:18:00Z,28.4073,-96.7122,0.939,1111122 
TCOON,ioos:station:TCOON:031:1,2016-05-01T04:18:00Z,28.4073,-96.7122,0.943,1111122 
TCOON,ioos:station:TCOON:031:1,2016-05-01T05:18:00Z,28.4073,-96.7122,0.936,1111122 
TCOON,ioos:station:TCOON:031:1,2016-05-01T06:18:00Z,28.4073,-96.7122,0.932,1111122 
TCOON,ioos:station:TCOON:031:1,2016-05-01T07:18:00Z,28.4073,-96.7122,0.906,1111122 
TCOON,ioos:station:TCOON:031:1,2016-05-01T08:18:00Z,28.4073,-96.7122,0.906,1111122 
TCOON,ioos:station:TCOON:031:1,2016-05-01T09:18:00Z,28.4073,-96.7122,0.886,1111122 
TCOON,ioos:station:TCOON:031:1,2016-05-01T10:18:00Z,28.4073,-96.7122,0.871,1111122 
TCOON,ioos:station:TCOON:031:1,2016-05-01T11:18:00Z,28.4073,-96.7122,0.869,1111122 
TCOON,ioos:station:TCOON:031:1,2016-05-01T12:18:00Z,28.4073,-96.7122,0.878,1111122 
TCOON,ioos:station:TCOON:031:1,2016-05-01T13:18:00Z,28.4073,-96.7122,0.886,1111122 
TCOON,ioos:station:TCOON:031:1,2016-05-01T14:18:00Z,28.4073,-96.7122,0.862,1111122 
TCOON,ioos:station:TCOON:031:1,2016-05-01T15:18:00Z,28.4073,-96.7122,0.843,1111122 
TCOON,ioos:station:TCOON:031:1,2016-05-01T16:18:00Z,28.4073,-96.7122,0.833,1111122 
TCOON,ioos:station:TCOON:031:1,2016-05-01T17:18:00Z,28.4073,-96.7122,0.819,1111122 
TCOON,ioos:station:TCOON:031:1,2016-05-01T18:18:00Z,28.4073,-96.7122,0.818,1111122 
TCOON,ioos:station:TCOON:031:1,2016-05-01T19:18:00Z,28.4073,-96.7122,0.83,1111122 
TCOON,ioos:station:TCOON:031:1,2016-05-01T20:18:00Z,28.4073,-96.7122,0.833,1111122 
TCOON,ioos:station:TCOON:031:1,2016-05-01T21:18:00Z,28.4073,-96.7122,0.849,1111122 
TCOON,ioos:station:TCOON:031:1,2016-05-01T22:18:00Z,28.4073,-96.7122,0.842,1111122 
TCOON,ioos:station:TCOON:031:1,2016-05-01T23:18:00Z,28.4073,-96.7122,0.852,1111122 
TCOON,ioos:station:TCOON:031:1,2016-05-02T00:18:00Z,28.4073,-96.7122,0.851,1111122 
TCOON,ioos:station:TCOON:031:1,2016-05-02T01:18:00Z,28.4073,-96.7122,0.862,1111122 
TCOON,ioos:station:TCOON:031:1,2016-05-02T02:18:00Z,28.4073,-96.7122,0.856,1111122 
TCOON,ioos:station:TCOON:031:1,2016-05-02T03:18:00Z,28.4073,-96.7122,0.876,1111122 
TCOON,ioos:station:TCOON:031:1,2016-05-02T04:18:00Z,28.4073,-96.7122,0.862,1111122 
TCOON,ioos:station:TCOON:031:1,2016-05-02T05:18:00Z,28.4073,-96.7122,0.862,1111122 
TCOON,ioos:station:TCOON:031:1,2016-05-02T06:18:00Z,28.4073,-96.7122,0.885,1111122 
TCOON,ioos:station:TCOON:031:1,2016-05-02T07:18:00Z,28.4073,-96.7122,0.901,1111122 
TCOON,ioos:station:TCOON:031:1,2016-05-02T08:18:00Z,28.4073,-96.7122,0.897,1111122 
TCOON,ioos:station:TCOON:031:1,2016-05-02T09:18:00Z,28.4073,-96.7122,0.891,1111122 
TCOON,ioos:station:TCOON:031:1,2016-05-02T10:18:00Z,28.4073,-96.7122,0.878,1111122 
TCOON,ioos:station:TCOON:031:1,2016-05-02T11:18:00Z,28.4073,-96.7122,0.848,1111122 
TCOON,ioos:station:TCOON:031:1,2016-05-02T12:18:00Z,28.4073,-96.7122,0.761,1111122 
TCOON,ioos:station:TCOON:031:1,2016-05-02T13:18:00Z,28.4073,-96.7122,0.762,1111122 
TCOON,ioos:station:TCOON:031:1,2016-05-02T14:18:00Z,28.4073,-96.7122,0.731,1111122 
TCOON,ioos:station:TCOON:031:1,2016-05-02T15:18:00Z,28.4073,-96.7122,0.724,1111122 
TCOON,ioos:station:TCOON:031:1,2016-05-02T16:18:00Z,28.4073,-96.7122,0.677,1111122 
TCOON,ioos:station:TCOON:031:1,2016-05-02T17:18:00Z,28.4073,-96.7122,0.76,1111122 
TCOON,ioos:station:TCOON:031:1,2016-05-02T18:18:00Z,28.4073,-96.7122,0.767,1111122 
TCOON,ioos:station:TCOON:031:1,2016-05-02T19:18:00Z,28.4073,-96.7122,0.831,1111122 
TCOON,ioos:station:TCOON:031:1,2016-05-02T20:18:00Z,28.4073,-96.7122,0.822,1111122 
TCOON,ioos:station:TCOON:031:1,2016-05-02T21:18:00Z,28.4073,-96.7122,0.822,1111122 
TCOON,ioos:station:TCOON:031:1,2016-05-02T22:18:00Z,28.4073,-96.7122,0.876,1111122 
TCOON,ioos:station:TCOON:031:1,2016-05-02T23:18:00Z,28.4073,-96.7122,0.832,1111122 
TCOON,ioos:station:TCOON:031:1,2016-05-03T00:18:00Z,28.4073,-96.7122,0.832,1111122 
TCOON,ioos:station:TCOON:031:1,2016-05-03T01:18:00Z,28.4073,-96.7122,0.817,1111122 
TCOON,ioos:station:TCOON:031:1,2016-05-03T02:18:00Z,28.4073,-96.7122,0.837,1111122 
TCOON,ioos:station:TCOON:031:1,2016-05-03T03:18:00Z,28.4073,-96.7122,0.858,1111122 
TCOON,ioos:station:TCOON:031:1,2016-05-03T04:18:00Z,28.4073,-96.7122,0.847,1111122 
TCOON,ioos:station:TCOON:031:1,2016-05-03T05:18:00Z,28.4073,-96.7122,0.844,1111122 
TCOON,ioos:station:TCOON:031:1,2016-05-03T06:18:00Z,28.4073,-96.7122,0.829,1111122 
TCOON,ioos:station:TCOON:031:1,2016-05-03T07:18:00Z,28.4073,-96.7122,0.829,1111122 
TCOON,ioos:station:TCOON:031:1,2016-05-03T08:18:00Z,28.4073,-96.7122,0.822,1111122 
TCOON,ioos:station:TCOON:031:1,2016-05-03T09:18:00Z,28.4073,-96.7122,0.81,1111122 
TCOON,ioos:station:TCOON:031:1,2016-05-03T10:18:00Z,28.4073,-96.7122,0.821,1111122 
TCOON,ioos:station:TCOON:031:1,2016-05-03T11:18:00Z,28.4073,-96.7122,0.794,1111122 
TCOON,ioos:station:TCOON:031:1,2016-05-03T12:18:00Z,28.4073,-96.7122,0.855,1111122 
TCOON,ioos:station:TCOON:031:1,2016-05-03T13:18:00Z,28.4073,-96.7122,0.833,1111122 
TCOON,ioos:station:TCOON:031:1,2016-05-03T14:18:00Z,28.4073,-96.7122,0.846,1111122 
TCOON,ioos:station:TCOON:031:1,2016-05-03T15:18:00Z,28.4073,-96.7122,0.81,1111122 
TCOON,ioos:station:TCOON:031:1,2016-05-03T16:18:00Z,28.4073,-96.7122,0.876,1111122 
TCOON,ioos:station:TCOON:031:1,2016-05-03T17:18:00Z,28.4073,-96.7122,0.848,1111122 
TCOON,ioos:station:TCOON:031:1,2016-05-03T18:24:00Z,28.4073,-96.7122,0.817,1111122 
TCOON,ioos:station:TCOON:031:1,2016-05-03T19:18:00Z,28.4073,-96.7122,0.814,1111122 
TCOON,ioos:station:TCOON:031:1,2016-05-03T20:18:00Z,28.4073,-96.7122,0.837,1111122 
TCOON,ioos:station:TCOON:031:1,2016-05-03T21:18:00Z,28.4073,-96.7122,0.834,1111122 
TCOON,ioos:station:TCOON:031:1,2016-05-03T22:18:00Z,28.4073,-96.7122,0.847,1111122 
TCOON,ioos:station:TCOON:031:1,2016-05-03T23:18:00Z,28.4073,-96.7122,0.843,1111122 
TCOON,ioos:station:TCOON:031:1,2016-05-04T00:18:00Z,28.4073,-96.7122,0.836,1111122 
TCOON,ioos:station:TCOON:031:1,2016-05-04T01:18:00Z,28.4073,-96.7122,0.83,1111122 
TCOON,ioos:station:TCOON:031:1,2016-05-04T02:18:00Z,28.4073,-96.7122,0.826,1111122 
TCOON,ioos:station:TCOON:031:1,2016-05-04T03:18:00Z,28.4073,-96.7122,0.816,1111122 
TCOON,ioos:station:TCOON:031:1,2016-05-04T04:18:00Z,28.4073,-96.7122,0.807,1111122 
TCOON,ioos:station:TCOON:031:1,2016-05-04T05:18:00Z,28.4073,-96.7122,0.794,1111122 
TCOON,ioos:station:TCOON:031:1,2016-05-04T06:18:00Z,28.4073,-96.7122,0.781,1111122 
TCOON,ioos:station:TCOON:031:1,2016-05-04T07:18:00Z,28.4073,-96.7122,0.767,1111122 
TCOON,ioos:station:TCOON:031:1,2016-05-04T08:18:00Z,28.4073,-96.7122,0.786,1111122 
TCOON,ioos:station:TCOON:031:1,2016-05-04T09:18:00Z,28.4073,-96.7122,0.805,1111122 
TCOON,ioos:station:TCOON:031:1,2016-05-04T10:18:00Z,28.4073,-96.7122,0.808,1111122 
TCOON,ioos:station:TCOON:031:1,2016-05-04T11:18:00Z,28.4073,-96.7122,0.816,1111122 
TCOON,ioos:station:TCOON:031:1,2016-05-04T12:18:00Z,28.4073,-96.7122,0.817,1111122 
TCOON,ioos:station:TCOON:031:1,2016-05-04T13:18:00Z,28.4073,-96.7122,0.798,1111122 
TCOON,ioos:station:TCOON:031:1,2016-05-04T14:18:00Z,28.4073,-96.7122,0.779,1111122 
TCOON,ioos:station:TCOON:031:1,2016-05-04T15:18:00Z,28.4073,-96.7122,0.782,1111122 
TCOON,ioos:station:TCOON:031:1,2016-05-04T16:18:00Z,28.4073,-96.7122,0.789,1111122 
TCOON,ioos:station:TCOON:031:1,2016-05-04T17:18:00Z,28.4073,-96.7122,0.782,1111122 
TCOON,ioos:station:TCOON:031:1,2016-05-04T18:18:00Z,28.4073,-96.7122,0.781,1111122 
TCOON,ioos:station:TCOON:031:1,2016-05-04T19:18:00Z,28.4073,-96.7122,0.786,1111122 
TCOON,ioos:station:TCOON:031:1,2016-05-04T20:18:00Z,28.4073,-96.7122,0.785,1111122 
TCOON,ioos:station:TCOON:031:1,2016-05-04T21:18:00Z,28.4073,-96.7122,0.772,1111122 
TCOON,ioos:station:TCOON:031:1,2016-05-04T22:18:00Z,28.4073,-96.7122,0.762,1111122 
TCOON,ioos:station:TCOON:031:1,2016-05-04T23:18:00Z,28.4073,-96.7122,0.764,1111122 
TCOON,ioos:station:TCOON:031:1,2016-05-05T00:18:00Z,28.4073,-96.7122,0.78,1111122 
TCOON,ioos:station:TCOON:031:1,2016-05-05T01:18:00Z,28.4073,-96.7122,0.796,1111122 
TCOON,ioos:station:TCOON:031:1,2016-05-05T02:18:00Z,28.4073,-96.7122,0.803,1111122 
TCOON,ioos:station:TCOON:031:1,2016-05-05T03:18:00Z,28.4073,-96.7122,0.781,1111122 
TCOON,ioos:station:TCOON:031:1,2016-05-05T04:18:00Z,28.4073,-96.7122,0.782,1111122 
TCOON,ioos:station:TCOON:031:1,2016-05-05T05:18:00Z,28.4073,-96.7122,0.76,1111122 
TCOON,ioos:station:TCOON:031:1,2016-05-05T06:24:00Z,28.4073,-96.7122,0.757,1111122 
TCOON,ioos:station:TCOON:031:1,2016-05-05T07:18:00Z,28.4073,-96.7122,0.746,1111122 
TCOON,ioos:station:TCOON:031:1,2016-05-05T08:18:00Z,28.4073,-96.7122,0.724,1111122 
TCOON,ioos:station:TCOON:031:1,2016-05-05T09:18:00Z,28.4073,-96.7122,0.719,1111122 
TCOON,ioos:station:TCOON:031:1,2016-05-05T10:18:00Z,28.4073,-96.7122,0.723,1111122 
TCOON,ioos:station:TCOON:031:1,2016-05-05T11:24:00Z,28.4073,-96.7122,0.718,1111122 
TCOON,ioos:station:TCOON:031:1,2016-05-05T12:18:00Z,28.4073,-96.7122,0.716,1111122 
TCOON,ioos:station:TCOON:031:1,2016-05-05T13:18:00Z,28.4073,-96.7122,0.706,1111122 
TCOON,ioos:station:TCOON:031:1,2016-05-05T14:18:00Z,28.4073,-96.7122,0.726,1111122 
TCOON,ioos:station:TCOON:031:1,2016-05-05T15:18:00Z,28.4073,-96.7122,0.727,1111122 
TCOON,ioos:station:TCOON:031:1,2016-05-05T16:18:00Z,28.4073,-96.7122,0.701,1111122 
TCOON,ioos:station:TCOON:031:1,2016-05-05T17:18:00Z,28.4073,-96.7122,0.705,1111122 
TCOON,ioos:station:TCOON:031:1,2016-05-05T18:18:00Z,28.4073,-96.7122,0.704,1111122 
TCOON,ioos:station:TCOON:031:1,2016-05-05T19:18:00Z,28.4073,-96.7122,0.709,1111122 
TCOON,ioos:station:TCOON:031:1,2016-05-05T20:18:00Z,28.4073,-96.7122,0.715,1111122 
TCOON,ioos:station:TCOON:031:1,2016-05-05T21:18:00Z,28.4073,-96.7122,0.708,1111122 
TCOON,ioos:station:TCOON:031:1,2016-05-05T22:18:00Z,28.4073,-96.7122,0.699,1111122 
TCOON,ioos:station:TCOON:031:1,2016-05-05T23:18:00Z,28.4073,-96.7122,0.696,1111122 
TCOON,ioos:station:TCOON:031:1,2016-05-06T00:18:00Z,28.4073,-96.7122,0.684,1111122 
TCOON,ioos:station:TCOON:031:1,2016-05-06T01:18:00Z,28.4073,-96.7122,0.675,1111122 
TCOON,ioos:station:TCOON:031:1,2016-05-06T02:18:00Z,28.4073,-96.7122,0.671,1111122 
TCOON,ioos:station:TCOON:031:1,2016-05-06T03:18:00Z,28.4073,-96.7122,0.649,1111122 
TCOON,ioos:station:TCOON:031:1,2016-05-06T04:18:00Z,28.4073,-96.7122,0.639,1111122 
TCOON,ioos:station:TCOON:031:1,2016-05-06T05:18:00Z,28.4073,-96.7122,0.612,1111122 
TCOON,ioos:station:TCOON:031:1,2016-05-06T06:18:00Z,28.4073,-96.7122,0.598,1111122 
TCOON,ioos:station:TCOON:031:1,2016-05-06T07:18:00Z,28.4073,-96.7122,0.593,1111122 
TCOON,ioos:station:TCOON:031:1,2016-05-06T08:18:00Z,28.4073,-96.7122,0.597,1111122 
TCOON,ioos:station:TCOON:031:1,2016-05-06T09:18:00Z,28.4073,-96.7122,0.597,1111122 
TCOON,ioos:station:TCOON:031:1,2016-05-06T10:18:00Z,28.4073,-96.7122,0.606,1111122 
TCOON,ioos:station:TCOON:031:1,2016-05-06T11:18:00Z,28.4073,-96.7122,0.605,1111122 
TCOON,ioos:station:TCOON:031:1,2016-05-06T12:18:00Z,28.4073,-96.7122,0.61,1111122 
TCOON,ioos:station:TCOON:031:1,2016-05-06T13:18:00Z,28.4073,-96.7122,0.625,1111122 
TCOON,ioos:station:TCOON:031:1,2016-05-06T14:18:00Z,28.4073,-96.7122,0.633,1111122 
TCOON,ioos:station:TCOON:031:1,2016-05-06T15:18:00Z,28.4073,-96.7122,0.642,1111122 
TCOON,ioos:station:TCOON:031:1,2016-05-06T16:18:00Z,28.4073,-96.7122,0.649,1111122 
TCOON,ioos:station:TCOON:031:1,2016-05-06T17:18:00Z,28.4073,-96.7122,0.664,1111122 
TCOON,ioos:station:TCOON:031:1,2016-05-06T18:18:00Z,28.4073,-96.7122,0.679,1111122 
TCOON,ioos:station:TCOON:031:1,2016-05-06T19:18:00Z,28.4073,-96.7122,0.688,1111122 
TCOON,ioos:station:TCOON:031:1,2016-05-06T20:18:00Z,28.4073,-96.7122,0.697,1111122 
TCOON,ioos:station:TCOON:031:1,2016-05-06T21:18:00Z,28.4073,-96.7122,0.694,1111122 
TCOON,ioos:station:TCOON:031:1,2016-05-06T22:18:00Z,28.4073,-96.7122,0.714,1111122 
TCOON,ioos:station:TCOON:031:1,2016-05-06T23:18:00Z,28.4073,-96.7122,0.709,1111122 
TCOON,ioos:station:TCOON:031:1,2016-05-07T00:18:00Z,28.4073,-96.7122,0.713,1111122 
TCOON,ioos:station:TCOON:031:1,2016-05-07T01:18:00Z,28.4073,-96.7122,0.701,1111122 
TCOON,ioos:station:TCOON:031:1,2016-05-07T02:18:00Z,28.4073,-96.7122,0.698,1111122 
TCOON,ioos:station:TCOON:031:1,2016-05-07T03:18:00Z,28.4073,-96.7122,0.688,1111122 
TCOON,ioos:station:TCOON:031:1,2016-05-07T04:18:00Z,28.4073,-96.7122,0.684,1111122 
TCOON,ioos:station:TCOON:031:1,2016-05-07T05:18:00Z,28.4073,-96.7122,0.691,1111122 
TCOON,ioos:station:TCOON:031:1,2016-05-07T06:18:00Z,28.4073,-96.7122,0.668,1111122 
TCOON,ioos:station:TCOON:031:1,2016-05-07T07:18:00Z,28.4073,-96.7122,0.654,1111122 
TCOON,ioos:station:TCOON:031:1,2016-05-07T08:18:00Z,28.4073,-96.7122,0.658,1111122 
TCOON,ioos:station:TCOON:031:1,2016-05-07T09:18:00Z,28.4073,-96.7122,0.643,1111122 
TCOON,ioos:station:TCOON:031:1,2016-05-07T10:18:00Z,28.4073,-96.7122,0.626,1111122 
TCOON,ioos:station:TCOON:031:1,2016-05-07T11:18:00Z,28.4073,-96.7122,0.628,1111122 
TCOON,ioos:station:TCOON:031:1,2016-05-07T12:18:00Z,28.4073,-96.7122,0.632,1111122 
TCOON,ioos:station:TCOON:031:1,2016-05-07T13:18:00Z,28.4073,-96.7122,0.643,1111122 
TCOON,ioos:station:TCOON:031:1,2016-05-07T14:18:00Z,28.4073,-96.7122,0.66,1111122 
TCOON,ioos:station:TCOON:031:1,2016-05-07T15:18:00Z,28.4073,-96.7122,0.67,1111122 
TCOON,ioos:station:TCOON:031:1,2016-05-07T16:18:00Z,28.4073,-96.7122,0.693,1111122 
TCOON,ioos:station:TCOON:031:1,2016-05-07T17:18:00Z,28.4073,-96.7122,0.719,1111122 
TCOON,ioos:station:TCOON:031:1,2016-05-07T18:18:00Z,28.4073,-96.7122,0.714,1111122 
TCOON,ioos:station:TCOON:031:1,2016-05-07T19:18:00Z,28.4073,-96.7122,0.723,1111122 
TCOON,ioos:station:TCOON:031:1,2016-05-07T20:18:00Z,28.4073,-96.7122,0.739,1111122 
TCOON,ioos:station:TCOON:031:1,2016-05-07T21:18:00Z,28.4073,-96.7122,0.763,1111122 
TCOON,ioos:station:TCOON:031:1,2016-05-07T22:18:00Z,28.4073,-96.7122,0.772,1111122 
TCOON,ioos:station:TCOON:031:1,2016-05-07T23:18:00Z,28.4073,-96.7122,0.764,1111122 
TCOON,ioos:station:TCOON:031:1,2016-05-08T00:18:00Z,28.4073,-96.7122,0.764,1111122 
TCOON,ioos:station:TCOON:031:1,2016-05-08T01:18:00Z,28.4073,-96.7122,0.759,1111122 
TCOON,ioos:station:TCOON:031:1,2016-05-08T02:18:00Z,28.4073,-96.7122,0.774,1111122 
TCOON,ioos:station:TCOON:031:1,2016-05-08T03:18:00Z,28.4073,-96.7122,0.779,1111122 
TCOON,ioos:station:TCOON:031:1,2016-05-08T04:18:00Z,28.4073,-96.7122,0.781,1111122 
TCOON,ioos:station:TCOON:031:1,2016-05-08T05:18:00Z,28.4073,-96.7122,0.822,1111122 
TCOON,ioos:station:TCOON:031:1,2016-05-08T06:18:00Z,28.4073,-96.7122,0.812,1111122 
TCOON,ioos:station:TCOON:031:1,2016-05-08T07:18:00Z,28.4073,-96.7122,0.763,1111122 
TCOON,ioos:station:TCOON:031:1,2016-05-08T08:18:00Z,28.4073,-96.7122,0.765,1111122 
TCOON,ioos:station:TCOON:031:1,2016-05-08T09:18:00Z,28.4073,-96.7122,0.801,1111122 
TCOON,ioos:station:TCOON:031:1,2016-05-08T10:18:00Z,28.4073,-96.7122,0.747,1111122 
TCOON,ioos:station:TCOON:031:1,2016-05-08T11:18:00Z,28.4073,-96.7122,0.72,1111122 
TCOON,ioos:station:TCOON:031:1,2016-05-08T12:18:00Z,28.4073,-96.7122,0.72,1111122 
TCOON,ioos:station:TCOON:031:1,2016-05-08T13:18:00Z,28.4073,-96.7122,0.716,1111122 
TCOON,ioos:station:TCOON:031:1,2016-05-08T14:18:00Z,28.4073,-96.7122,0.736,1111122 
TCOON,ioos:station:TCOON:031:1,2016-05-08T15:18:00Z,28.4073,-96.7122,0.761,1111122 
TCOON,ioos:station:TCOON:031:1,2016-05-08T16:18:00Z,28.4073,-96.7122,0.776,1111122 
TCOON,ioos:station:TCOON:031:1,2016-05-08T17:18:00Z,28.4073,-96.7122,0.763,1111122 
TCOON,ioos:station:TCOON:031:1,2016-05-08T18:18:00Z,28.4073,-96.7122,0.781,1111122 
TCOON,ioos:station:TCOON:031:1,2016-05-08T19:18:00Z,28.4073,-96.7122,0.773,1111122 
TCOON,ioos:station:TCOON:031:1,2016-05-08T20:18:00Z,28.4073,-96.7122,0.766,1111122 
TCOON,ioos:station:TCOON:031:1,2016-05-08T21:18:00Z,28.4073,-96.7122,0.76,1111122 
TCOON,ioos:station:TCOON:031:1,2016-05-08T22:18:00Z,28.4073,-96.7122,0.772,1111122 
TCOON,ioos:station:TCOON:031:1,2016-05-08T23:18:00Z,28.4073,-96.7122,0.799,1111122 
TCOON,ioos:station:TCOON:031:1,2016-05-09T00:18:00Z,28.4073,-96.7122,0.787,1111122 
TCOON,ioos:station:TCOON:031:1,2016-05-09T01:18:00Z,28.4073,-96.7122,0.793,1111122 
TCOON,ioos:station:TCOON:031:1,2016-05-09T02:18:00Z,28.4073,-96.7122,0.788,1111122 
TCOON,ioos:station:TCOON:031:1,2016-05-09T03:18:00Z,28.4073,-96.7122,0.776,1111122 
TCOON,ioos:station:TCOON:031:1,2016-05-09T04:18:00Z,28.4073,-96.7122,0.762,1111122 
TCOON,ioos:station:TCOON:031:1,2016-05-09T05:18:00Z,28.4073,-96.7122,0.745,1111122 
TCOON,ioos:station:TCOON:031:1,2016-05-09T06:18:00Z,28.4073,-96.7122,0.731,1111122 
TCOON,ioos:station:TCOON:031:1,2016-05-09T07:18:00Z,28.4073,-96.7122,0.739,1111122 
TCOON,ioos:station:TCOON:031:1,2016-05-09T08:18:00Z,28.4073,-96.7122,0.751,1111122 
TCOON,ioos:station:TCOON:031:1,2016-05-09T09:18:00Z,28.4073,-96.7122,0.708,1111122 
TCOON,ioos:station:TCOON:031:1,2016-05-09T10:18:00Z,28.4073,-96.7122,0.703,1111122 
TCOON,ioos:station:TCOON:031:1,2016-05-09T11:18:00Z,28.4073,-96.7122,0.669,1111122 
TCOON,ioos:station:TCOON:031:1,2016-05-09T12:18:00Z,28.4073,-96.7122,0.67,1111122 
TCOON,ioos:station:TCOON:031:1,2016-05-09T13:18:00Z,28.4073,-96.7122,0.746,1111122 
TCOON,ioos:station:TCOON:031:1,2016-05-09T14:18:00Z,28.4073,-96.7122,0.856,1111122 
TCOON,ioos:station:TCOON:031:1,2016-05-09T15:18:00Z,28.4073,-96.7122,0.892,1111122 
TCOON,ioos:station:TCOON:031:1,2016-05-09T16:18:00Z,28.4073,-96.7122,0.937,1111122 
TCOON,ioos:station:TCOON:031:1,2016-05-09T17:18:00Z,28.4073,-96.7122,0.853,1111122 
TCOON,ioos:station:TCOON:031:1,2016-05-09T18:18:00Z,28.4073,-96.7122,0.79,1111122 
TCOON,ioos:station:TCOON:031:1,2016-05-09T19:18:00Z,28.4073,-96.7122,0.736,1111122 
TCOON,ioos:station:TCOON:031:1,2016-05-09T20:18:00Z,28.4073,-96.7122,0.764,1111122 
TCOON,ioos:station:TCOON:031:1,2016-05-09T21:18:00Z,28.4073,-96.7122,0.788,1111122 
TCOON,ioos:station:TCOON:031:1,2016-05-09T22:18:00Z,28.4073,-96.7122,0.795,1111122 
TCOON,ioos:station:TCOON:031:1,2016-05-09T23:18:00Z,28.4073,-96.7122,0.785,1111122 
TCOON,ioos:station:TCOON:031:1,2016-05-10T00:18:00Z,28.4073,-96.7122,0.816,1111122 
TCOON,ioos:station:TCOON:031:1,2016-05-10T01:18:00Z,28.4073,-96.7122,0.808,1111122 
TCOON,ioos:station:TCOON:031:1,2016-05-10T02:18:00Z,28.4073,-96.7122,0.797,1111122 
TCOON,ioos:station:TCOON:031:1,2016-05-10T03:18:00Z,28.4073,-96.7122,0.8,1111122 
TCOON,ioos:station:TCOON:031:1,2016-05-10T04:18:00Z,28.4073,-96.7122,0.825,1111122 
TCOON,ioos:station:TCOON:031:1,2016-05-10T05:18:00Z,28.4073,-96.7122,0.808,1111122 
TCOON,ioos:station:TCOON:031:1,2016-05-10T06:18:00Z,28.4073,-96.7122,0.781,1111122 
TCOON,ioos:station:TCOON:031:1,2016-05-10T07:18:00Z,28.4073,-96.7122,0.75,1111122 
TCOON,ioos:station:TCOON:031:1,2016-05-10T08:18:00Z,28.4073,-96.7122,0.744,1111122 
TCOON,ioos:station:TCOON:031:1,2016-05-10T09:18:00Z,28.4073,-96.7122,0.749,1111122 
TCOON,ioos:station:TCOON:031:1,2016-05-10T10:18:00Z,28.4073,-96.7122,0.726,1111122 
TCOON,ioos:station:TCOON:031:1,2016-05-10T11:18:00Z,28.4073,-96.7122,0.692,1111122 
TCOON,ioos:station:TCOON:031:1,2016-05-10T12:18:00Z,28.4073,-96.7122,0.687,1111122 
TCOON,ioos:station:TCOON:031:1,2016-05-10T13:18:00Z,28.4073,-96.7122,0.678,1111122 
TCOON,ioos:station:TCOON:031:1,2016-05-10T14:18:00Z,28.4073,-96.7122,0.694,1111122 
TCOON,ioos:station:TCOON:031:1,2016-05-10T15:18:00Z,28.4073,-96.7122,0.712,1111122 
TCOON,ioos:station:TCOON:031:1,2016-05-10T16:18:00Z,28.4073,-96.7122,0.725,1111122 
TCOON,ioos:station:TCOON:031:1,2016-05-10T17:18:00Z,28.4073,-96.7122,0.748,1111122 
TCOON,ioos:station:TCOON:031:1,2016-05-10T18:18:00Z,28.4073,-96.7122,0.76,1111122 
TCOON,ioos:station:TCOON:031:1,2016-05-10T19:18:00Z,28.4073,-96.7122,0.782,1111122 
TCOON,ioos:station:TCOON:031:1,2016-05-10T20:18:00Z,28.4073,-96.7122,0.792,1111122 
TCOON,ioos:station:TCOON:031:1,2016-05-10T21:18:00Z,28.4073,-96.7122,0.81,1111122 
TCOON,ioos:station:TCOON:031:1,2016-05-10T22:18:00Z,28.4073,-96.7122,0.818,1111122 
TCOON,ioos:station:TCOON:031:1,2016-05-10T23:18:00Z,28.4073,-96.7122,0.824,1111122 
TCOON,ioos:station:TCOON:031:1,2016-05-11T00:18:00Z,28.4073,-96.7122,0.831,1111122 
TCOON,ioos:station:TCOON:031:1,2016-05-11T01:18:00Z,28.4073,-96.7122,0.847,1111122 
TCOON,ioos:station:TCOON:031:1,2016-05-11T02:24:00Z,28.4073,-96.7122,0.855,1111122 
TCOON,ioos:station:TCOON:031:1,2016-05-11T03:24:00Z,28.4073,-96.7122,0.846,1111122 
TCOON,ioos:station:TCOON:031:1,2016-05-11T04:18:00Z,28.4073,-96.7122,0.82,1111122 
TCOON,ioos:station:TCOON:031:1,2016-05-11T05:18:00Z,28.4073,-96.7122,0.809,1111122 
TCOON,ioos:station:TCOON:031:1,2016-05-11T06:18:00Z,28.4073,-96.7122,0.788,1111122 
TCOON,ioos:station:TCOON:031:1,2016-05-11T07:18:00Z,28.4073,-96.7122,0.753,1111122 
TCOON,ioos:station:TCOON:031:1,2016-05-11T08:18:00Z,28.4073,-96.7122,0.753,1111122 
TCOON,ioos:station:TCOON:031:1,2016-05-11T09:18:00Z,28.4073,-96.7122,0.714,1111122 
TCOON,ioos:station:TCOON:031:1,2016-05-11T10:18:00Z,28.4073,-96.7122,0.724,1111122 
TCOON,ioos:station:TCOON:031:1,2016-05-11T11:18:00Z,28.4073,-96.7122,0.718,1111122 
TCOON,ioos:station:TCOON:031:1,2016-05-11T19:42:00Z,28.4073,-96.7122,0.769,1111122 
TCOON,ioos:station:TCOON:031:1,2016-05-11T20:30:00Z,28.4073,-96.7122,0.762,1111122 
TCOON,ioos:station:TCOON:031:1,2016-05-11T21:18:00Z,28.4073,-96.7122,0.733,1111122 
TCOON,ioos:station:TCOON:031:1,2016-05-11T22:18:00Z,28.4073,-96.7122,0.748,1111122 
TCOON,ioos:station:TCOON:031:1,2016-05-11T23:18:00Z,28.4073,-96.7122,0.749,1111122 
TCOON,ioos:station:TCOON:031:1,2016-05-12T00:18:00Z,28.4073,-96.7122,0.765,1111122 
TCOON,ioos:station:TCOON:031:1,2016-05-12T01:18:00Z,28.4073,-96.7122,0.763,1111122 
TCOON,ioos:station:TCOON:031:1,2016-05-12T02:18:00Z,28.4073,-96.7122,0.774,1111122 
TCOON,ioos:station:TCOON:031:1,2016-05-12T03:18:00Z,28.4073,-96.7122,0.79,1111122 
TCOON,ioos:station:TCOON:031:1,2016-05-12T04:18:00Z,28.4073,-96.7122,0.79,1111122 
TCOON,ioos:station:TCOON:031:1,2016-05-12T05:18:00Z,28.4073,-96.7122,0.775,1111122 
TCOON,ioos:station:TCOON:031:1,2016-05-12T06:18:00Z,28.4073,-96.7122,0.776,1111122 
TCOON,ioos:station:TCOON:031:1,2016-05-12T07:18:00Z,28.4073,-96.7122,0.773,1111122 
TCOON,ioos:station:TCOON:031:1,2016-05-12T08:18:00Z,28.4073,-96.7122,0.765,1111122 
TCOON,ioos:station:TCOON:031:1,2016-05-12T09:18:00Z,28.4073,-96.7122,0.734,1111122 
TCOON,ioos:station:TCOON:031:1,2016-05-12T10:18:00Z,28.4073,-96.7122,0.723,1111122 
TCOON,ioos:station:TCOON:031:1,2016-05-12T11:18:00Z,28.4073,-96.7122,0.719,1111122 
TCOON,ioos:station:TCOON:031:1,2016-05-12T12:18:00Z,28.4073,-96.7122,0.698,1111122 
TCOON,ioos:station:TCOON:031:1,2016-05-12T13:18:00Z,28.4073,-96.7122,0.678,1111122 
TCOON,ioos:station:TCOON:031:1,2016-05-12T14:18:00Z,28.4073,-96.7122,0.683,1111122 
TCOON,ioos:station:TCOON:031:1,2016-05-12T15:18:00Z,28.4073,-96.7122,0.681,1111122 
TCOON,ioos:station:TCOON:031:1,2016-05-12T16:18:00Z,28.4073,-96.7122,0.688,1111122 
TCOON,ioos:station:TCOON:031:1,2016-05-12T17:18:00Z,28.4073,-96.7122,0.689,1111122 
TCOON,ioos:station:TCOON:031:1,2016-05-12T18:18:00Z,28.4073,-96.7122,0.697,1111122 
TCOON,ioos:station:TCOON:031:1,2016-05-12T19:18:00Z,28.4073,-96.7122,0.707,1111122 
TCOON,ioos:station:TCOON:031:1,2016-05-12T20:18:00Z,28.4073,-96.7122,0.714,1111122 
TCOON,ioos:station:TCOON:031:1,2016-05-12T21:18:00Z,28.4073,-96.7122,0.72,1111122 
TCOON,ioos:station:TCOON:031:1,2016-05-12T22:18:00Z,28.4073,-96.7122,0.738,1111122 
TCOON,ioos:station:TCOON:031:1,2016-05-12T23:18:00Z,28.4073,-96.7122,0.727,1111122 
TCOON,ioos:station:TCOON:031:1,2016-05-13T00:18:00Z,28.4073,-96.7122,0.72,1111122 
TCOON,ioos:station:TCOON:031:1,2016-05-13T01:18:00Z,28.4073,-96.7122,0.719,1111122 
TCOON,ioos:station:TCOON:031:1,2016-05-13T02:18:00Z,28.4073,-96.7122,0.74,1111122 
TCOON,ioos:station:TCOON:031:1,2016-05-13T03:18:00Z,28.4073,-96.7122,0.747,1111122 